{"data":{"norad_id":55054,"epoch":"2026-09-21T16:35:08.664000Z","epoch_age_seconds":62295,"freshness":"FRESH","line1":"1 55054U 23001AX  26264.69107250  .00003512  00000+0  12305-3 0  9999","line2":"2 55054  97.3115 320.5701 0010378 141.4073 218.7911 15.30084967206475","mean_motion":15.30084967,"eccentricity":0.0010378,"inclination_deg":97.3115,"raan_deg":320.5701,"arg_perigee_deg":141.4073,"mean_anomaly_deg":218.7911,"bstar":0.00012305,"rev_number":20647,"period_min":94.112420620887,"perigee_km":468.44579348993,"apogee_km":482.67132399165,"semimajor_km":6853.6955587408,"source":"CELESTRAK","updated_at":"2026-09-22T09:00:25.268576Z"}}